Location: Unspecified
(40.7945°N, 111.1337°W)
Time: 18:17:58
(UTC-06:00)

Altair - Pass Details

Date: 01 July 2019
Orbit: 1501 x 1683 km, 47.2° (Epoch: 19 July)

Event Time Altitude Azimuth Distance (km) Brightness Sun altitude
Rises 22:45:46 0° 290° (WNW) 4,730 11.1 -15.8°
Reaches altitude 10° 22:48:50 10° 293° (WNW) 3,769 10.5 -16.2°
Maximum altitude 22:58:27 70° 17° (NNE) 1,705 7.8 -17.3°
Drops below altitude 10° 23:08:25 10° 101° (E) 3,902 9.2 -18.3°
Enters shadow 23:08:48 - 101° (ESE) 4,018 9.3 -18.4°
